THOR ABLESTAR DEB, 2701

Orbit data source: Space-Track

THOR ABLESTAR DEB, 2701 is space debris in LEO originally from a launch on Thu, 24 Jun 1965 UTC launched from the Air Force Western Test Range (AFWTR). Debris objects in space refer to the collection of defunct objects orbiting the Earth. Examples of debris include non-operational satellites, rocket bodies, and fragments generated from explosions, collisions, or faulty payload assembly.

Loading next visibility...
THOR ABLESTAR DEB details
Identifier
2701, 1965-048E
Orbit
LEO
Last TLE update1 day ago
Origin
Flag of USUSN BuWeps (US)
ManufacturerUnknown
MissionSpacecraft
Bus & MotorUnknown
MassUnknown
Launch date (UTC)
1965-06-24 (60 years ago)
Launch vehicleUnknown
Launch site
Air Force Western Test Range (AFWTR)
Object type
Payload
Rocket body
Debris
Shape & HBRUnknown
Radar Cross SectionSmall (<0.1 m²)

Expand to show TLE details & history

TLE from 1 day ago
0 THOR ABLESTAR DEB
1 02701U 65048E   25023.76729411  .00000615  00000-0  75682-3 0  9995
2 02701  89.8900 293.7613 0062504 315.0295  99.1690 13.63597610951908
Epoch: 2025-01-23T18:24Z
Definitive object data (Epoch: 2025-01-23T18:24:54.211Z)
Latitude54.99894°
Longitude-105.64839°
Altitude1,039.485 km
Speed7.333 km/s
True Right ascension19h 35m 40s
True Declination54° 50' 36"
Sunlit
Object was in daylight at TLE epoch
Visualization TLE readout
Latitude2.86908°
Longitude-105.81323°
Altitude996.37 km
Speed7.368 km/s
Apparent Right ascension17h 17m 06s
Apparent Declination-23° 11' 42"
Sunlit
Object is in daylight
Visualization observer readout
Local Sidereal Time01:23:47
Azimuth270.556° WNW
Elevation-38.527°
Doppler factor1
Orbital elements
Apogee altitude1,065.915 km
Perigee altitude973.437 km
Semi-major axis7,397.813 km
Eccentricity0.0062504
Inclination89.89°
RAAN293.7613°
Arg. of periapsis315.0295°
True anomaly99.87519°
Mean anomaly99.169°
Eccentric anomaly99.52219°
Mean motion3.41105 °/min
BSTAR0.00075682
Orbital period105.54 mins
Loading maneuver chart data...

THOR ABLESTAR DEB Visibility forecast

Observer location: undefined°, undefined

Span
Click to sort rows by Start time (UTC) header in descending order
Start Az.
Max El. time (UTC)
Max El. Az.
Max El.
End time (UTC)
End Az.
13 mins2025-01-25 05:57:02.097Z5.879° NNE2025-01-25 06:03:02.097Z57.368° ENE43.349°2025-01-25 06:10:02.097Z176.18° S
6 mins2025-01-25 07:46:02.097Z310.976° NW2025-01-25 07:48:02.097Z289.843° WNW16.979°2025-01-25 07:52:02.097Z251.125° W
10 mins2025-01-25 17:49:02.097Z158.774° S2025-01-25 17:54:02.097Z63.291° ENE41.185°2025-01-25 17:59:02.097Z6.365° NNE
6 mins2025-01-25 19:37:02.097Z252.879° W2025-01-25 19:40:02.097Z287.442° WNW18.329°2025-01-25 19:43:02.097Z318.539° NNW
|